MZT1233 ZPPP-ZHCC

Flight info

Callsign MZT1233
Flight time N/A
Altitude 37100
Route DADOL W144 IGNAK W179 WFX W81 APIMI W275 NSH W281 SUDGO W4 LIMGI H103 P52
Aircraft CL60/M-SADE3FGHIJ3J4J7P2RWXY/HB1D1

Departure

Time 2026-05-04 17:19
Airport Kunming Changshui International Airport (ZPPP)

Arrival

Time N/A
Airport Zhengzhou Xinzheng International Airport (ZHCC)
Time Latitude Longitude Altitude Speed Heading
2026-05-04 17:00 25.11684 102.93724 6908 ft 0 kts 38°
2026-05-04 17:07 25.11684 102.93725 6914 ft 0 kts 38°
2026-05-04 17:07 25.11676 102.93717 6914 ft 2 kts 38°
2026-05-04 17:07 25.11664 102.93707 6914 ft 2 kts 38°
2026-05-04 17:08 25.11652 102.93697 6914 ft 2 kts 38°
2026-05-04 17:08 25.11629 102.93676 6914 ft 2 kts 38°
2026-05-04 17:09 25.11609 102.93662 6914 ft 2 kts 11°
2026-05-04 17:09 25.11594 102.93664 6914 ft 2 kts 335°
2026-05-04 17:09 25.11585 102.93671 6914 ft 0 kts 309°
2026-05-04 17:10 25.11584 102.93673 6914 ft 0 kts 308°
2026-05-04 17:14 25.11703 102.93504 6914 ft 23 kts 308°
2026-05-04 17:14 25.11791 102.93436 6914 ft 14 kts 17°
2026-05-04 17:14 25.11986 102.93599 6914 ft 20 kts 38°
2026-05-04 17:15 25.12107 102.93704 6914 ft 23 kts 39°
2026-05-04 17:15 25.12359 102.93923 6914 ft 20 kts 38°
2026-05-04 17:16 25.12597 102.94131 6914 ft 22 kts 38°
2026-05-04 17:16 25.12840 102.94089 6913 ft 13 kts 309°
2026-05-04 17:17 25.12858 102.93991 6913 ft 14 kts 229°
2026-05-04 17:17 25.12781 102.93925 6913 ft 0 kts 219°
2026-05-04 17:18 25.12703 102.93858 6914 ft 50 kts 219°
2026-05-04 17:18 25.11263 102.92601 7069 ft 187 kts 219°
2026-05-04 17:19 25.09138 102.90736 8812 ft 199 kts 219°
2026-05-04 17:19 25.06797 102.88563 9783 ft 252 kts 226°
2026-05-04 17:20 25.04917 102.85009 10756 ft 297 kts 253°
2026-05-04 17:20 25.04799 102.80592 10830 ft 279 kts 283°
2026-05-04 17:20 25.05453 102.78605 10827 ft 278 kts 296°
2026-05-04 17:21 25.07926 102.75396 10827 ft 276 kts 323°
2026-05-04 17:21 25.11328 102.72756 11342 ft 323 kts 324°
2026-05-04 17:22 25.13171 102.71327 12294 ft 330 kts 324°
2026-05-04 17:22 25.15068 102.69857 13269 ft 333 kts 323°
2026-05-04 17:23 25.21612 102.67280 15932 ft 348 kts 351°
2026-05-04 17:23 25.24019 102.66966 16722 ft 350 kts 351°
2026-05-04 17:23 25.28878 102.66322 18208 ft 355 kts 350°
2026-05-04 17:24 25.31322 102.65996 18902 ft 357 kts 350°
2026-05-04 17:24 25.38838 102.64985 20843 ft 365 kts 349°
2026-05-04 17:25 25.41359 102.64645 21438 ft 368 kts 349°
2026-05-04 17:25 25.46489 102.64140 22541 ft 378 kts
2026-05-04 17:26 25.51617 102.66062 23528 ft 398 kts 22°
2026-05-04 17:26 25.59150 102.70192 25118 ft 406 kts 21°
2026-05-04 17:27 25.64291 102.73002 26109 ft 412 kts 21°
2026-05-04 17:27 25.69492 102.75842 27064 ft 417 kts 20°
2026-05-04 17:28 25.74740 102.78709 27960 ft 422 kts 20°
2026-05-04 17:29 25.82589 102.83448 29240 ft 434 kts 25°
2026-05-04 17:29 25.90401 102.88764 30343 ft 441 kts 25°
2026-05-04 17:30 25.98317 102.94149 31326 ft 447 kts 24°
2026-05-04 17:31 26.03641 102.97772 31932 ft 451 kts 24°
2026-05-04 17:31 26.11739 103.03287 32772 ft 456 kts 24°
2026-05-04 17:32 26.17224 103.07026 33272 ft 460 kts 24°
2026-05-04 17:33 26.25463 103.12648 33910 ft 466 kts 24°
2026-05-04 17:33 26.28221 103.14532 34111 ft 467 kts 24°
2026-05-04 17:34 26.36564 103.20239 34781 ft 469 kts 24°
2026-05-04 17:34 26.39348 103.22145 35002 ft 469 kts 24°
2026-05-04 17:35 26.47682 103.27858 35685 ft 468 kts 24°
2026-05-04 17:35 26.53336 103.31371 36101 ft 461 kts 18°
2026-05-04 17:35 26.56210 103.32966 36292 ft 461 kts 18°
2026-05-04 17:36 26.59080 103.34564 36476 ft 461 kts 18°
2026-05-04 17:36 26.61944 103.36159 36648 ft 460 kts 18°
2026-05-04 17:36 26.64805 103.37756 36822 ft 460 kts 18°
2026-05-04 17:36 26.67676 103.39359 36997 ft 460 kts 18°
2026-05-04 17:37 26.70551 103.40967 37167 ft 459 kts 18°
2026-05-04 17:37 26.73380 103.42549 37323 ft 459 kts 18°
2026-05-04 17:37 26.76270 103.44163 37404 ft 460 kts 18°
2026-05-04 17:38 26.82007 103.47357 37426 ft 463 kts 18°
2026-05-04 17:38 26.87804 103.50594 37356 ft 461 kts 18°
2026-05-04 17:39 26.96368 103.55383 37282 ft 457 kts 18°
2026-05-04 17:39 27.02039 103.58558 37242 ft 457 kts 18°
2026-05-04 17:40 27.07736 103.61752 37262 ft 457 kts 18°
2026-05-04 17:40 27.13465 103.64967 37274 ft 458 kts 18°
2026-05-04 17:41 27.19170 103.68174 37284 ft 458 kts 18°
2026-05-04 17:41 27.24904 103.71401 37283 ft 458 kts 18°
2026-05-04 17:42 27.30598 103.74609 37294 ft 458 kts 18°
2026-05-04 17:42 27.36359 103.77669 37299 ft 455 kts 15°
2026-05-04 17:43 27.42125 103.80643 37289 ft 456 kts 15°
2026-05-04 17:43 27.47870 103.83621 37270 ft 456 kts 15°
2026-05-04 17:44 27.53646 103.86643 37227 ft 456 kts 15°
2026-05-04 17:44 27.59436 103.89676 37175 ft 455 kts 15°
2026-05-04 17:45 27.65148 103.92673 37149 ft 454 kts 15°
2026-05-04 17:45 27.70856 103.95671 37328 ft 450 kts 15°
2026-05-04 17:46 27.73694 103.97163 37481 ft 448 kts 15°
2026-05-04 17:46 27.76527 103.98652 37537 ft 451 kts 15°
2026-05-04 17:46 27.79399 104.00159 37419 ft 457 kts 15°
2026-05-04 17:46 27.82297 104.01685 37344 ft 458 kts 15°
2026-05-04 17:47 27.88047 104.04719 37250 ft 453 kts 15°
2026-05-04 17:47 27.93756 104.07733 37252 ft 452 kts 15°
2026-05-04 17:48 27.99456 104.10743 37231 ft 454 kts 15°
2026-05-04 17:48 28.05212 104.13787 37233 ft 454 kts 15°
2026-05-04 17:49 28.10931 104.16817 37242 ft 454 kts 15°
2026-05-04 17:49 28.16696 104.19874 37251 ft 454 kts 15°
2026-05-04 17:50 28.22453 104.22930 37246 ft 454 kts 15°
2026-05-04 17:50 28.28179 104.25974 37229 ft 454 kts 15°
2026-05-04 17:51 28.33929 104.28944 37202 ft 448 kts 11°
2026-05-04 17:51 28.39842 104.30634 37189 ft 429 kts 357°
2026-05-04 17:52 28.45678 104.30685 37172 ft 418 kts 348°
2026-05-04 17:52 28.51508 104.30381 37159 ft 418 kts 348°
2026-05-04 17:53 28.57366 104.30074 37168 ft 418 kts 348°
2026-05-04 17:53 28.63172 104.29767 37176 ft 418 kts 348°
2026-05-04 17:54 28.68972 104.29456 37188 ft 418 kts 348°
2026-05-04 17:54 28.74817 104.29143 37201 ft 418 kts 348°
2026-05-04 17:55 28.80614 104.28830 37181 ft 418 kts 348°
2026-05-04 17:55 28.86469 104.28513 37159 ft 417 kts 348°
2026-05-04 17:56 28.92273 104.28198 37140 ft 417 kts 348°
2026-05-04 17:56 28.98058 104.27882 37125 ft 417 kts 348°
2026-05-04 17:57 29.03892 104.27562 37119 ft 417 kts 348°
2026-05-04 17:57 29.09700 104.27244 37119 ft 417 kts 348°
2026-05-04 17:58 29.15517 104.26924 37119 ft 418 kts 348°
2026-05-04 17:58 29.21163 104.26614 37118 ft 418 kts 348°
2026-05-04 17:59 29.27019 104.26372 37116 ft 423 kts 352°
2026-05-04 18:00 29.35941 104.27696 37121 ft 432 kts 358°
2026-05-04 18:00 29.41901 104.28724 37124 ft 432 kts 358°
2026-05-04 18:01 29.47885 104.29752 37127 ft 432 kts 358°
2026-05-04 18:01 29.53850 104.30775 37126 ft 432 kts 358°
2026-05-04 18:02 29.62796 104.32307 37119 ft 432 kts 358°
2026-05-04 18:02 29.68776 104.33330 37114 ft 432 kts 358°
2026-05-04 18:03 29.74707 104.34346 37118 ft 433 kts 358°
2026-05-04 18:03 29.80675 104.35368 37108 ft 433 kts 358°
2026-05-04 18:04 29.86724 104.36401 37096 ft 439 kts 358°
2026-05-04 18:05 29.95864 104.37966 37098 ft 447 kts 359°
2026-05-04 18:05 30.02112 104.39039 37095 ft 451 kts 359°
2026-05-04 18:06 30.11491 104.40653 37096 ft 457 kts 359°
2026-05-04 18:06 30.17838 104.41754 37096 ft 458 kts 359°
2026-05-04 18:07 30.24167 104.42860 37097 ft 458 kts 359°
2026-05-04 18:07 30.30479 104.43964 37097 ft 457 kts 359°
2026-05-04 18:08 30.36774 104.45064 37097 ft 456 kts 359°
2026-05-04 18:08 30.43083 104.46169 37097 ft 456 kts 359°
2026-05-04 18:09 30.49349 104.47697 37093 ft 467 kts
2026-05-04 18:09 30.55459 104.50679 37092 ft 483 kts 19°
2026-05-04 18:10 30.61081 104.55145 37092 ft 498 kts 31°
2026-05-04 18:10 30.65951 104.61009 37093 ft 513 kts 44°
2026-05-04 18:11 30.69890 104.68076 37094 ft 523 kts 53°
2026-05-04 18:11 30.73456 104.75452 37097 ft 522 kts 53°
2026-05-04 18:12 30.77017 104.82814 37097 ft 522 kts 53°
2026-05-04 18:12 30.80573 104.90175 37096 ft 522 kts 53°
2026-05-04 18:13 30.84110 104.97504 37094 ft 521 kts 53°
2026-05-04 18:14 30.89462 105.08614 37092 ft 520 kts 53°
2026-05-04 18:14 30.92978 105.15929 37091 ft 519 kts 53°
2026-05-04 18:15 31.00017 105.30608 37090 ft 519 kts 53°
2026-05-04 18:16 31.03519 105.37928 37089 ft 519 kts 53°
2026-05-04 18:16 31.07025 105.45288 37090 ft 519 kts 53°
2026-05-04 18:17 31.12248 105.56316 37089 ft 518 kts 53°
2026-05-04 18:18 31.17471 105.67378 37087 ft 517 kts 54°
2026-05-04 18:18 31.20937 105.74732 37084 ft 517 kts 54°
2026-05-04 18:19 31.26122 105.85762 37082 ft 516 kts 54°
2026-05-04 18:19 31.29563 105.93102 37081 ft 516 kts 54°
2026-05-04 18:20 31.32998 106.00442 37080 ft 515 kts 54°
2026-05-04 18:20 31.36821 106.07465 37086 ft 501 kts 43°
2026-05-04 18:21 31.41499 106.13397 37081 ft 496 kts 39°
2026-05-04 18:21 31.46215 106.19288 37084 ft 495 kts 39°
2026-05-04 18:22 31.50910 106.25191 37087 ft 495 kts 39°
2026-05-04 18:22 31.55604 106.31100 37085 ft 495 kts 39°
2026-05-04 18:23 31.60293 106.37007 37083 ft 495 kts 39°
2026-05-04 18:23 31.64992 106.42886 37082 ft 494 kts 39°
2026-05-04 18:24 31.69720 106.48755 37080 ft 493 kts 39°
2026-05-04 18:24 31.74452 106.54639 37077 ft 493 kts 39°
2026-05-04 18:25 31.79161 106.60503 37076 ft 493 kts 39°
2026-05-04 18:25 31.83886 106.66393 37075 ft 493 kts 39°
2026-05-04 18:26 31.88589 106.72267 37072 ft 493 kts 39°
2026-05-04 18:26 31.93299 106.78159 37071 ft 494 kts 39°
2026-05-04 18:27 31.97999 106.84046 37071 ft 495 kts 39°
2026-05-04 18:27 32.02716 106.89967 37069 ft 495 kts 39°
2026-05-04 18:28 32.07448 106.95907 37065 ft 496 kts 39°
2026-05-04 18:28 32.12181 107.01807 37049 ft 495 kts 40°
2026-05-04 18:29 32.16890 107.07686 37036 ft 491 kts 40°
2026-05-04 18:29 32.21569 107.13538 37039 ft 490 kts 40°
2026-05-04 18:30 32.25764 107.19988 37035 ft 502 kts 53°
2026-05-04 18:30 32.27404 107.23613 37027 ft 508 kts 59°
2026-05-04 18:31 32.29966 107.31467 36965 ft 513 kts 65°
2026-05-04 18:31 32.32385 107.39389 36915 ft 513 kts 65°
2026-05-04 18:32 32.34803 107.47312 36884 ft 512 kts 65°
2026-05-04 18:32 32.37221 107.55244 36938 ft 511 kts 65°
2026-05-04 18:33 32.39621 107.63129 37011 ft 513 kts 65°
2026-05-04 18:33 32.42054 107.71133 37036 ft 515 kts 65°
2026-05-04 18:34 32.44472 107.79107 37002 ft 516 kts 65°
2026-05-04 18:34 32.47000 107.87064 36850 ft 514 kts 60°
2026-05-04 18:35 32.50533 107.94286 36660 ft 502 kts 48°
2026-05-04 18:35 32.55126 108.00306 36643 ft 486 kts 35°
2026-05-04 18:36 32.60523 108.04908 36855 ft 471 kts 23°
2026-05-04 18:36 32.66427 108.07889 36997 ft 459 kts 11°
2026-05-04 18:37 32.72568 108.10075 37062 ft 462 kts 11°
2026-05-04 18:37 32.78786 108.12290 37032 ft 465 kts 11°
2026-05-04 18:38 32.85028 108.14516 37031 ft 465 kts 11°
2026-05-04 18:38 32.91214 108.16721 37026 ft 465 kts 11°
2026-05-04 18:39 32.97440 108.18943 37021 ft 464 kts 11°
2026-05-04 18:39 33.03622 108.21150 37018 ft 464 kts 11°
2026-05-04 18:40 33.09803 108.23359 37029 ft 463 kts 11°
2026-05-04 18:40 33.16014 108.25701 36933 ft 469 kts 16°
2026-05-04 18:41 33.21818 108.29431 36767 ft 478 kts 30°
2026-05-04 18:41 33.26762 108.34793 36642 ft 487 kts 44°
2026-05-04 18:42 33.30561 108.41569 36577 ft 497 kts 58°
2026-05-04 18:42 33.32964 108.49359 36349 ft 507 kts 73°
2026-05-04 18:43 33.33955 108.57697 36442 ft 503 kts 82°
2026-05-04 18:43 33.34271 108.61834 36563 ft 503 kts 81°
2026-05-04 18:43 33.34592 108.66005 36666 ft 503 kts 82°
2026-05-04 18:44 33.35235 108.74342 36850 ft 502 kts 82°
2026-05-04 18:44 33.35876 108.82704 36914 ft 506 kts 82°
2026-05-04 18:45 33.36517 108.91088 36952 ft 510 kts 82°
2026-05-04 18:45 33.37161 108.99564 36986 ft 512 kts 82°
2026-05-04 18:46 33.37801 109.08071 36869 ft 515 kts 82°
2026-05-04 18:46 33.38434 109.16547 36687 ft 514 kts 82°
2026-05-04 18:46 33.38750 109.20802 36580 ft 513 kts 82°
2026-05-04 18:47 33.39068 109.25088 36461 ft 513 kts 82°
2026-05-04 18:47 33.39685 109.33495 36639 ft 505 kts 82°
2026-05-04 18:48 33.40292 109.41807 36817 ft 506 kts 82°
2026-05-04 18:48 33.40901 109.50220 36956 ft 507 kts 82°
2026-05-04 18:49 33.41556 109.58641 36988 ft 510 kts 80°
2026-05-04 18:49 33.42386 109.67070 37018 ft 511 kts 81°
2026-05-04 18:50 33.43210 109.75498 37020 ft 511 kts 81°
2026-05-04 18:50 33.44030 109.83957 37011 ft 511 kts 81°
2026-05-04 18:51 33.44841 109.92377 37008 ft 511 kts 81°
2026-05-04 18:51 33.45647 110.00808 37007 ft 511 kts 81°
2026-05-04 18:52 33.46450 110.09272 37011 ft 511 kts 81°
2026-05-04 18:52 33.47247 110.17722 37014 ft 511 kts 81°
2026-05-04 18:53 33.48036 110.26163 37014 ft 511 kts 81°
2026-05-04 18:53 33.49248 110.34475 37019 ft 506 kts 71°
2026-05-04 18:54 33.51794 110.42282 37019 ft 500 kts 58°
2026-05-04 18:54 33.55607 110.49197 37027 ft 491 kts 45°
2026-05-04 18:55 33.60459 110.54826 37038 ft 482 kts 32°
2026-05-04 18:55 33.66129 110.58900 37040 ft 474 kts 20°
2026-05-04 18:55 33.69091 110.60603 36978 ft 475 kts 20°
2026-05-04 18:56 33.75082 110.64059 36838 ft 474 kts 20°
2026-05-04 18:56 33.80978 110.67461 36932 ft 469 kts 21°
2026-05-04 18:57 33.86855 110.70851 37039 ft 471 kts 21°
2026-05-04 18:57 33.92820 110.74294 37037 ft 474 kts 21°
2026-05-04 18:58 33.98644 110.77660 37019 ft 474 kts 21°
2026-05-04 18:58 34.04578 110.81095 37019 ft 472 kts 21°